• în Republica Moldova
  • Lista ţărilor
  • Pe 7 zile
  • Temperatura apei
  • Hartă satelitară
  • Meteo pe hartă
  • Widget-uri
  • user-avatar
    Intrare

    Meteo pe oră la Shaki

    Astăzi, 27 Iunie, Marţi

    Timp Temperatura Precipitaţii Vânt Presiune Umiditate
    00:00 +19°C° 0 mm 2 m/s 737 mmHg 75%
    01:00 +19°C° 0 mm 2 m/s 737 mmHg 77%
    02:00 +19°C° 0 mm 2 m/s 737 mmHg 78%
    03:00 +19°C° 0 mm 1 m/s 736 mmHg 81%
    04:00 +21°C° 0 mm 1 m/s 736 mmHg 76%
    05:00 +22°C° 0 mm 1 m/s 736 mmHg 71%
    06:00 +24°C° 0 mm 1 m/s 736 mmHg 66%
    07:00 +26°C° 0 mm 1 m/s 736 mmHg 59%
    08:00 +27°C° 0 mm 2 m/s 735 mmHg 53%
    09:00 +29°C° 0 mm 2 m/s 735 mmHg 46%
    10:00 +30°C° 0 mm 2 m/s 735 mmHg 42%
    11:00 +31°C° 0 mm 2 m/s 734 mmHg 39%
    12:00 +34°C° 0 mm 2 m/s 734 mmHg 36%
    13:00 +34°C° 0 mm 2 m/s 734 mmHg 34%
    14:00 +35°C° 0 mm 2 m/s 733 mmHg 33%
    15:00 +34°C° 0 mm 3 m/s 733 mmHg 35%
    16:00 +34°C° 0 mm 2 m/s 733 mmHg 38%
    17:00 +32°C° 0 mm 2 m/s 733 mmHg 40%
    18:00 +32°C° 0 mm 2 m/s 733 mmHg 42%
    19:00 +29°C° 0 mm 2 m/s 733 mmHg 48%
    20:00 +27°C° 0 mm 2 m/s 733 mmHg 54%
    21:00 +25°C° 0 mm 2 m/s 733 mmHg 60%
    22:00 +24°C° 0 mm 2 m/s 733 mmHg 61%
    23:00 +24°C° 0 mm 2 m/s 733 mmHg 61%

    Mâine, 28 Iunie, Miercuri

    Timp Temperatura Precipitaţii Vânt Presiune Umiditate
    00:00 +23°C° 0 mm 2 m/s 733 mmHg 61%
    01:00 +23°C° 0 mm 1 m/s 733 mmHg 61%
    02:00 +22°C° 0 mm 1 m/s 733 mmHg 62%
    03:00 +22°C° 0 mm 1 m/s 733 mmHg 62%
    04:00 +23°C° 0 mm 1 m/s 733 mmHg 60%
    05:00 +25°C° 0 mm 1 m/s 733 mmHg 58%
    06:00 +26°C° 0 mm 1 m/s 733 mmHg 56%
    07:00 +28°C° 0 mm 1 m/s 733 mmHg 50%
    08:00 +30°C° 0 mm 1 m/s 733 mmHg 45%
    09:00 +32°C° 0 mm 1 m/s 733 mmHg 39%
    10:00 +34°C° 0 mm 2 m/s 733 mmHg 36%
    11:00 +35°C° 0 mm 2 m/s 732 mmHg 33%
    12:00 +36°C° 0 mm 2 m/s 732 mmHg 30%
    13:00 +37°C° 0 mm 2 m/s 732 mmHg 30%
    14:00 +37°C° 0 mm 3 m/s 732 mmHg 29%
    15:00 +37°C° 0 mm 3 m/s 731 mmHg 29%
    16:00 +37°C° 0 mm 3 m/s 731 mmHg 31%
    17:00 +36°C° 0 mm 2 m/s 731 mmHg 33%
    18:00 +35°C° 0 mm 2 m/s 731 mmHg 35%
    19:00 +31°C° 0 mm 2 m/s 731 mmHg 41%
    20:00 +29°C° 0 mm 2 m/s 732 mmHg 46%
    21:00 +26°C° 0 mm 3 m/s 732 mmHg 52%
    22:00 +25°C° 0 mm 2 m/s 732 mmHg 54%
    23:00 +24°C° 0 mm 2 m/s 732 mmHg 55%

    Poimâine, 29 Iunie, Joi

    Timp Temperatura Precipitaţii Vânt Presiune Umiditate
    00:00 +23°C° 0 mm 1 m/s 732 mmHg 57%
    01:00 +23°C° 0 mm 1 m/s 732 mmHg 57%
    02:00 +22°C° 0 mm 1 m/s 732 mmHg 58%
    03:00 +22°C° 0 mm 1 m/s 732 mmHg 58%
    04:00 +24°C° 0 mm 1 m/s 732 mmHg 53%
    05:00 +26°C° 0 mm 1 m/s 732 mmHg 48%
    06:00 +27°C° 0 mm 1 m/s 732 mmHg 44%
    07:00 +29°C° 0 mm 1 m/s 732 mmHg 37%
    08:00 +31°C° 0 mm 1 m/s 732 mmHg 31%
    09:00 +34°C° 0 mm 2 m/s 732 mmHg 25%
    10:00 +35°C° 0 mm 2 m/s 732 mmHg 23%
    11:00 +36°C° 0 mm 2 m/s 732 mmHg 22%
    12:00 +37°C° 0 mm 2 m/s 732 mmHg 21%
    13:00 +37°C° 0 mm 2 m/s 732 mmHg 21%
    14:00 +37°C° 0 mm 2 m/s 731 mmHg 21%
    15:00 +37°C° 0 mm 2 m/s 731 mmHg 21%
    16:00 +37°C° 0 mm 2 m/s 731 mmHg 23%
    17:00 +36°C° 0 mm 2 m/s 731 mmHg 25%
    18:00 +35°C° 0 mm 2 m/s 731 mmHg 28%
    19:00 +31°C° 0 mm 2 m/s 731 mmHg 33%
    20:00 +28°C° 0 mm 2 m/s 731 mmHg 39%
    21:00 +26°C° 0 mm 2 m/s 732 mmHg 44%
    22:00 +25°C° 0 mm 2 m/s 732 mmHg 44%
    23:00 +24°C° 0 mm 1 m/s 732 mmHg 45%

    30 Iunie, Vineri

    Timp Temperatura Precipitaţii Vânt Presiune Umiditate
    00:00 +24°C° 0 mm 1 m/s 732 mmHg 45%
    01:00 +23°C° 0 mm 1 m/s 732 mmHg 46%
    02:00 +23°C° 0 mm 1 m/s 732 mmHg 47%
    03:00 +22°C° 0 mm 1 m/s 732 mmHg 49%
    04:00 +24°C° 0 mm 1 m/s 732 mmHg 46%
    05:00 +25°C° 0 mm 1 m/s 732 mmHg 44%
    06:00 +27°C° 0 mm 2 m/s 733 mmHg 42%
    07:00 +29°C° 0 mm 2 m/s 733 mmHg 36%
    08:00 +31°C° 0 mm 2 m/s 733 mmHg 30%
    09:00 +34°C° 0 mm 2 m/s 733 mmHg 24%
    10:00 +35°C° 0 mm 2 m/s 733 mmHg 23%
    11:00 +36°C° 0 mm 2 m/s 733 mmHg 22%
    12:00 +35°C° 0 mm 1 m/s 732 mmHg 20%
    13:00 +36°C° 0,1 mm 1 m/s 732 mmHg 20%
    14:00 +36°C° 0,1 mm 1 m/s 732 mmHg 20%
    15:00 +36°C° 0,1 mm 1 m/s 732 mmHg 20%
    16:00 +36°C° 0,1 mm 2 m/s 732 mmHg 22%
    17:00 +36°C° 0,1 mm 2 m/s 732 mmHg 24%
    18:00 +35°C° 0,1 mm 2 m/s 732 mmHg 26%
    19:00 +32°C° 0 mm 2 m/s 733 mmHg 30%
    20:00 +29°C° 0 mm 2 m/s 733 mmHg 34%
    21:00 +27°C° 0 mm 3 m/s 733 mmHg 38%
    22:00 +26°C° 0 mm 2 m/s 733 mmHg 39%
    23:00 +26°C° 0 mm 2 m/s 734 mmHg 40%

    1 Iulie, Sâmbătă

    Timp Temperatura Precipitaţii Vânt Presiune Umiditate
    00:00 +25°C° 0 mm 2 m/s 734 mmHg 42%
    01:00 +25°C° 0 mm 2 m/s 734 mmHg 42%
    02:00 +24°C° 0 mm 2 m/s 734 mmHg 43%
    03:00 +24°C° 0 mm 2 m/s 734 mmHg 43%
    04:00 +25°C° 0 mm 2 m/s 734 mmHg 42%
    05:00 +26°C° 0 mm 2 m/s 734 mmHg 41%
    06:00 +27°C° 0 mm 2 m/s 735 mmHg 40%
    07:00 +29°C° 0 mm 2 m/s 735 mmHg 34%
    08:00 +31°C° 0 mm 2 m/s 735 mmHg 28%
    09:00 +35°C° 0 mm 2 m/s 735 mmHg 22%
    10:00 +36°C° 0 mm 2 m/s 735 mmHg 20%
    11:00 +36°C° 0 mm 2 m/s 735 mmHg 19%
    12:00 +37°C° 0 mm 2 m/s 735 mmHg 17%
    13:00 +38°C° 0 mm 3 m/s 735 mmHg 17%
    14:00 +38°C° 0 mm 3 m/s 734 mmHg 17%
    15:00 +38°C° 0 mm 4 m/s 734 mmHg 17%
    16:00 +37°C° 0 mm 4 m/s 734 mmHg 18%
    17:00 +36°C° 0 mm 3 m/s 734 mmHg 20%
    18:00 +36°C° 0 mm 3 m/s 734 mmHg 22%
    19:00 +33°C° 0 mm 3 m/s 734 mmHg 26%
    20:00 +29°C° 0 mm 3 m/s 735 mmHg 30%
    21:00 +27°C° 0 mm 3 m/s 735 mmHg 34%
    22:00 +26°C° 0 mm 2 m/s 735 mmHg 35%
    23:00 +25°C° 0 mm 2 m/s 735 mmHg 36%

    2 Iulie, Duminică

    Timp Temperatura Precipitaţii Vânt Presiune Umiditate
    00:00 +24°C° 0 mm 2 m/s 735 mmHg 38%
    01:00 +24°C° 0 mm 1 m/s 735 mmHg 37%
    02:00 +24°C° 0 mm 1 m/s 734 mmHg 37%
    03:00 +23°C° 0 mm 1 m/s 734 mmHg 37%
    04:00 +25°C° 0 mm 1 m/s 734 mmHg 36%
    05:00 +26°C° 0 mm 1 m/s 735 mmHg 35%
    06:00 +28°C° 0 mm 1 m/s 735 mmHg 34%
    07:00 +30°C° 0 mm 1 m/s 735 mmHg 28%
    08:00 +32°C° 0 mm 1 m/s 735 mmHg 23%
    09:00 +35°C° 0 mm 2 m/s 735 mmHg 18%
    10:00 +36°C° 0 mm 2 m/s 734 mmHg 17%
    11:00 +38°C° 0 mm 3 m/s 734 mmHg 16%
    12:00 +39°C° 0 mm 3 m/s 733 mmHg 15%
    13:00 +40°C° 0 mm 4 m/s 733 mmHg 15%
    14:00 +41°C° 0 mm 4 m/s 732 mmHg 14%
    15:00 +41°C° 0 mm 5 m/s 732 mmHg 14%
    16:00 +40°C° 0 mm 5 m/s 732 mmHg 16%
    17:00 +38°C° 0 mm 4 m/s 732 mmHg 18%
    18:00 +37°C° 0 mm 4 m/s 731 mmHg 21%
    19:00 +34°C° 0 mm 4 m/s 732 mmHg 23%
    20:00 +32°C° 0 mm 4 m/s 732 mmHg 26%
    21:00 +28°C° 0 mm 3 m/s 732 mmHg 28%
    22:00 +27°C° 0 mm 3 m/s 732 mmHg 30%
    23:00 +27°C° 0 mm 2 m/s 732 mmHg 31%
    Arată mai mult